Weather in Ternovka

Russia / Voronezh Oblast     50°07′47″N   39°50′58″E
temp.,
°C
wind,
m/s
gust,
m/s
humid.,
%
clouds,
%
prec.,
mm/h
press.,
hPa
HPBL,
m
5 august, thu
thu500:00+18n22545 0.0 101715
03:00+17ne22635 0.0 101714
06:00+18e1163100 0.0 101817
09:00+24ese2245100 0.0 1017442
12:00+29s12325 0.0 10172278
15:00+30nw0227100 0.0 10152845
18:00+29ne1231100 0.0 1014392
21:00+23ene224285 0.0 101414
6 august, fri
fri600:00+20e22455 0.0 101425
03:00+19ese384828 0.0 1014138
06:00+20ese411485 0.0 1013219
09:00+27se6103224 0.0 1013593
12:00+32sse792558 0.0 10121712
15:00+35sse7823100 0.0 10093455
18:00+33se58255 0.0 10091588
21:00+26ese412345 0.0 1009231
7 august, sat
sat700:00+26se6163177 0.0 1009356
03:00+23ese5133192 0.0 1009303
06:00+22ese51534100 0.0 1010383
09:00+29se7112420 0.0 1010730
12:00+35se7918100 0.0 10091826
15:00+36se881872 0.0 10082474
18:00+32ene4723100 0.0 1008315
21:00+27ese41228100 0.0 1009215
8 august, sun
sun800:00+26ese41326100 0.0 1010335
03:00+28e4528100 0.0 101075
06:00+28ese4732100 0.0 1010125
09:00+29ene5824100 0.0 1010230
12:00+28nnw2229100 0.0 101189
15:00+30nw2430100 0.0 10111132
18:00+27nne5937100 0.0 1012424
21:00+25ne5104299 0.0 1012259
9 august, mon
mon900:00+25nne41041100 0.0 1012236
03:00+25n41141100 0.0 1012325
06:00+24n4943100 0.0 1012277
09:00+26n6104099 0.0 1012418
12:00+30nne673133 0.0 1012834
15:00+34n452514 0.0 10112822
18:00+32n3528100 0.0 1011652
21:00+26nne224041 0.0 101213